User: anonymous   Login
Location: Dompnac
(44.5644°N, 4.1026°E)
Time: 19:26:50
(UTC+00:00)
Language:

Cosmos 1867 - Orbit

View from above orbital plane
View from above orbital plane
View from above satellite
View from above satellite

Ground track
Ground track

The orbit data is extracted from the following two-line orbital elements,

1 18187U 87060A   20333.18875771 -.00000088  00000-0  47708-5 0  9999
2 18187  65.0105 302.4823 0015821 281.6379  78.2930 14.31116444744305
Epoch (UTC): 28 November 2020 04:31:48
Eccentricity: 0.0015821
inclination: 65.0105°
perigee height: 776 km
apogee height: 799 km
right ascension of ascending node: 302.4823°
argument of perigee: 281.6379°
revolutions per day: 14.31116444
mean anomaly at epoch: 78.2930°
orbit number at epoch: 74430

The dashed part of the orbit path shows where the satellite is in the earth's shadow,  

DLR